WX5KDM Weather Reports


time (UTC)temp
F
wind
direction
speed
knots
gust
knots
rain 1hr
in
rain 24hr
in
rain mn
in
humidity
%
barometer
mb
20260906122637 77 72 0.9 1.7 0.00 0.00 0.00 91 1014.6
20260906122133 77 50 0.9 2.6 0.00 0.00 0.00 91 1014.5
20260906121629 77 54 0.0 1.7 0.00 0.00 0.00 90 1014.4
20260906121126 77 84 2.6 3.5 0.00 0.00 0.00 90 1014.3
20260906120621 77 59 2.6 2.6 0.00 0.00 0.00 90 1014.2
20260906120119 77 66 0.9 1.7 0.00 0.00 0.00 90 1014.2
20260906115618 77 66 0.0 1.7 0.00 0.00 0.00 90 1014.0
20260906115114 78 94 0.0 0.9 0.00 0.00 0.00 89 1014.1
20260906114607 78 94 1.7 2.6 0.00 0.00 0.00 89 1013.9
20260906114103 78 61 0.9 2.6 0.00 0.00 0.00 89 1013.8
20260906113602 78 77 1.7 2.6 0.00 0.00 0.00 89 1013.7
20260906113057 78 87 0.9 2.6 0.00 0.00 0.00 89 1013.9
20260906112551 77 87 0.9 1.7 0.00 0.00 0.00 89 1013.9
20260906112048 77 62 3.5 7.0 0.00 0.00 0.00 90 1013.9
20260906111548 76 69 1.7 6.1 0.00 0.00 0.00 92 1013.3
20260906111043 76 67 1.7 5.2 0.00 0.00 0.00 92 1013.4
20260906110543 76 261 0.0 0.0 0.00 0.00 0.00 92 1012.9
20260906110042 76 261 0.0 0.0 0.00 0.00 0.00 92 1012.8
20260906105537 75 261 0.0 0.0 0.00 0.00 0.00 93 1012.8
20260906105033 75 261 0.0 0.0 0.00 0.00 0.00 94 1012.8
20260906104532 75 261 0.0 0.0 0.00 0.00 0.00 94 1012.6
20260906104032 75 261 0.0 0.0 0.00 0.00 0.00 94 1012.7
20260906103530 75 261 0.0 0.0 0.00 0.00 0.00 94 1012.8
20260906103026 75 261 0.0 0.0 0.00 0.00 0.00 94 1012.7
20260906102526 75 261 0.0 0.0 0.00 0.00 0.00 94 1012.9
20260906102021 75 261 0.0 0.0 0.00 0.00 0.00 94 1012.6
20260906101515 76 261 0.0 0.0 0.00 0.00 0.00 94 1012.8
20260906101010 75 261 0.0 0.0 0.00 0.00 0.00 94 1012.7
20260906100500 75 261 0.0 0.0 0.00 0.00 0.00 94 1012.6
20260906100000 75 261 0.0 0.0 0.00 0.00 0.00 94 1012.5
20260906095455 75 261 0.0 0.0 0.00 0.00 0.00 94 1012.3
20260906094950 75 260 0.0 0.0 0.00 0.00 0.00 94 1012.4
20260906094449 76 261 0.0 0.0 0.00 0.00 0.00 94 1012.5
20260906093945 76 260 0.0 0.0 0.00 0.00 0.00 94 1012.7
20260906093441 76 260 0.0 0.0 0.00 0.00 0.00 93 1012.6
20260906092941 76 261 0.0 0.0 0.00 0.00 0.00 93 1012.6
20260906092436 76 261 0.0 0.0 0.00 0.00 0.00 93 1012.5
20260906091931 76 261 0.0 0.0 0.00 0.00 0.00 93 1012.4
20260906091427 76 261 0.0 0.0 0.00 0.00 0.00 92 1012.5
20260906090923 76 260 0.0 0.0 0.00 0.00 0.00 92 1012.4
20260906090418 76 261 0.0 0.0 0.00 0.00 0.00 92 1012.4
20260906085913 77 261 0.0 0.0 0.00 0.00 0.00 92 1012.4
20260906085412 77 261 0.0 0.0 0.00 0.00 0.00 92 1012.3
20260906084911 77 261 0.0 0.0 0.00 0.00 0.00 92 1012.4
20260906084406 77 260 0.0 0.0 0.00 0.00 0.00 92 1012.3
20260906083905 77 261 0.0 0.0 0.00 0.00 0.00 92 1012.3
20260906083401 77 261 0.0 0.0 0.00 0.00 0.00 91 1012.4
20260906082901 77 260 0.0 0.0 0.00 0.00 0.00 91 1012.4
20260906082401 77 260 0.0 0.0 0.00 0.00 0.00 91 1012.4
20260906081857 77 261 0.0 0.0 0.00 0.00 0.00 90 1012.3
20260906081352 77 261 0.0 0.0 0.00 0.00 0.00 90 1012.5
20260906080848 78 261 0.0 0.0 0.00 0.00 0.00 90 1012.6
20260906080345 78 261 0.0 0.0 0.00 0.00 0.00 90 1012.5
20260906075843 78 261 0.0 0.0 0.00 0.00 0.00 90 1012.8
20260906075338 78 261 0.0 0.0 0.00 0.00 0.00 89 1012.7
20260906074834 78 261 0.0 0.0 0.00 0.00 0.00 89 1012.8
20260906074334 78 261 0.0 0.0 0.00 0.00 0.00 89 1012.7
20260906073832 78 261 0.0 0.0 0.00 0.00 0.00 89 1012.5
20260906073327 78 261 0.0 0.9 0.00 0.00 0.00 88 1012.5
20260906072824 77 261 0.0 0.0 0.00 0.00 0.00 90 1012.6
20260906072319 78 260 0.0 0.0 0.00 0.00 0.00 90 1012.6
20260906071815 78 261 0.0 0.0 0.00 0.00 0.00 90 1012.4
20260906071310 78 261 0.0 0.0 0.00 0.00 0.00 89 1012.4
20260906070806 78 261 0.0 0.0 0.00 0.00 0.00 89 1012.4
20260906070302 78 260 0.0 0.0 0.00 0.00 0.00 89 1012.5
20260906065756 78 260 0.0 0.0 0.00 0.00 0.00 88 1012.5
20260906065252 79 260 0.0 0.0 0.00 0.00 0.00 87 1012.4
20260906064747 79 260 0.0 0.0 0.00 0.00 0.00 86 1012.5
20260906064243 80 260 0.0 0.0 0.00 0.00 0.00 86 1012.5
20260906063738 80 260 0.0 0.0 0.00 0.00 0.00 85 1012.5
20260906063233 80 260 0.9 1.7 0.00 0.00 0.00 85 1012.4
20260906062728 80 261 0.0 0.0 0.00 0.00 0.00 85 1012.5
20260906062227 80 260 1.7 2.6 0.00 0.00 0.00 85 1012.5
20260906061723 80 234 1.7 1.7 0.00 0.00 0.00 85 1012.6
20260906061220 80 234 1.7 2.6 0.00 0.00 0.00 85 1012.7
20260906060715 79 234 0.9 0.9 0.00 0.00 0.00 89 1012.6
20260906060212 79 234 0.0 0.0 0.00 0.00 0.00 89 1012.5
20260906055708 79 234 0.0 0.0 0.00 0.00 0.00 89 1012.6
20260906055203 79 234 0.0 0.0 0.00 0.00 0.00 89 1012.8
20260906054658 79 234 0.0 0.0 0.00 0.00 0.00 88 1012.6
20260906054157 79 234 0.0 0.0 0.00 0.00 0.00 87 1012.9
20260906053654 80 234 0.0 0.0 0.00 0.00 0.00 87 1012.7
20260906053149 80 234 0.0 0.0 0.00 0.00 0.00 87 1012.8
20260906052645 80 234 0.0 0.0 0.00 0.00 0.00 86 1012.9
20260906052141 80 234 0.0 0.0 0.00 0.00 0.00 86 1013.0
20260906051638 80 234 0.0 0.0 0.00 0.00 0.00 85 1012.7
20260906051137 80 234 0.0 0.0 0.00 0.00 0.00 86 1012.9
20260906050633 80 234 0.0 0.0 0.00 0.00 0.00 87 1012.9
20260906050128 80 234 0.0 0.0 0.00 0.00 0.00 87 1012.7
20260906045626 80 234 0.0 0.0 0.00 0.00 0.00 87 1012.8
20260906045121 81 234 0.0 0.0 0.00 0.00 0.00 86 1012.5
20260906044617 82 234 0.0 0.0 0.00 0.00 0.00 84 1012.7
20260906044112 82 234 0.0 0.0 0.00 0.00 0.00 83 1012.8
20260906043609 82 234 0.0 0.0 0.00 0.00 0.00 82 1012.8
20260906043104 82 234 0.0 0.0 0.00 0.00 0.00 84 1012.8
20260906042603 82 234 0.0 0.0 0.00 0.00 0.00 85 1013.0
20260906042058 82 234 0.0 0.0 0.00 0.00 0.00 84 1012.9
20260906041554 83 234 0.0 0.0 0.00 0.00 0.00 83 1013.1
20260906041048 83 234 0.9 0.9 0.00 0.00 0.00 81 1013.0
20260906040543 82 234 0.0 0.9 0.00 0.00 0.00 82 1013.0
20260906040034 82 234 1.7 1.7 0.00 0.00 0.00 83 1012.8
20260906035529 82 234 0.0 1.7 0.00 0.00 0.00 84 1012.8
20260906035025 81 236 1.7 3.5 0.00 0.00 0.00 86 1012.6
20260906034524 81 36 0.0 0.0 0.00 0.00 0.00 84 1012.5
20260906034019 81 36 0.0 0.0 0.00 0.00 0.00 83 1012.6
20260906033514 81 36 0.0 0.0 0.00 0.00 0.00 82 1012.7
20260906033010 82 36 0.0 0.0 0.00 0.00 0.00 82 1012.5
20260906032507 81 36 0.0 0.0 0.00 0.00 0.00 80 1012.6
20260906032001 82 36 0.0 0.0 0.00 0.00 0.00 83 1012.7
20260906031456 81 36 0.0 0.0 0.00 0.00 0.00 83 1012.6
20260906030951 81 36 0.0 0.0 0.00 0.00 0.00 83 1012.5
20260906030445 82 36 0.0 0.0 0.00 0.00 0.00 83 1012.6
20260906025940 82 36 0.0 0.0 0.00 0.00 0.00 82 1012.4
20260906025439 82 36 0.0 0.0 0.00 0.00 0.00 81 1012.5
20260906024938 82 36 0.0 0.0 0.00 0.00 0.00 81 1012.5
20260906024438 82 36 0.0 0.0 0.00 0.00 0.00 80 1012.5
20260906023933 82 36 0.0 0.0 0.00 0.00 0.00 80 1012.5
20260906023430 82 36 0.0 0.0 0.00 0.00 0.00 80 1012.3
20260906022930 83 36 0.0 0.0 0.00 0.00 0.00 81 1012.2
20260906022425 83 36 0.0 0.0 0.00 0.00 0.00 81 1012.4
20260906021920 83 36 0.0 0.0 0.00 0.00 0.00 79 1012.2
20260906021421 83 36 0.0 0.0 0.00 0.00 0.00 80 1012.0
20260906020920 83 36 0.0 0.0 0.00 0.00 0.00 80 1012.0
20260906020415 83 36 0.0 0.0 0.00 0.00 0.00 81 1012.2
20260906015909 83 36 0.0 0.0 0.00 0.00 0.00 80 1012.0
20260906015409 84 36 0.0 0.0 0.00 0.00 0.00 80 1011.9
20260906014903 84 36 0.0 0.0 0.00 0.00 0.00 79 1011.8
20260906014402 84 36 0.0 0.0 0.00 0.00 0.00 78 1011.8
20260906013859 84 36 0.0 0.0 0.00 0.00 0.00 77 1011.7
20260906013354 84 36 0.0 0.0 0.00 0.00 0.00 77 1011.7
20260906012849 84 36 0.0 0.0 0.00 0.00 0.00 77 1011.7
20260906012344 84 36 0.0 0.0 0.00 0.00 0.00 76 1011.7
20260906011844 84 36 0.0 0.0 0.00 0.00 0.00 77 1011.6
20260906011339 85 36 0.0 0.0 0.00 0.00 0.00 76 1011.6
20260906010835 85 36 0.0 0.0 0.00 0.00 0.00 73 1011.5
20260906010331 86 36 0.0 0.0 0.00 0.00 0.00 72 1011.4
20260906005826 87 36 0.0 0.0 0.00 0.00 0.00 70 1011.4
20260906005325 87 36 0.0 0.0 0.00 0.00 0.00 68 1011.3
20260906004824 87 36 0.0 0.0 0.00 0.00 0.00 67 1011.3
20260906004324 87 36 0.0 0.0 0.00 0.00 0.00 66 1011.1
20260906003819 88 36 0.0 0.0 0.00 0.00 0.00 64 1011.2
20260906003315 88 36 0.0 0.0 0.00 0.00 0.00 63 1011.2
20260906002810 89 36 0.0 0.0 0.00 0.00 0.00 63 1011.3
20260906002309 89 36 0.0 0.0 0.00 0.00 0.00 63 1011.3
20260906001805 90 36 0.0 0.0 0.00 0.00 0.00 63 1011.1
20260906001300 91 36 0.0 0.0 0.00 0.00 0.00 61 1011.3
20260906000755 92 36 0.0 0.0 0.00 0.00 0.00 59 1011.5
20260906000249 93 36 0.0 0.0 0.00 0.00 0.00 58 1011.1
20260905235745 94 37 0.0 0.0 0.00 0.00 0.00 56 1011.3
20260905235244 95 36 0.0 0.0 0.00 0.00 0.00 55 1011.3
20260905234740 96 37 0.0 0.0 0.00 0.00 0.00 54 1011.2
20260905234235 98 37 0.0 0.0 0.00 0.00 0.00 50 1011.4
20260905233730 98 37 0.0 0.0 0.00 0.00 0.00 48 1011.4
20260905233229 99 37 0.0 0.0 0.00 0.00 0.00 47 1011.4
20260905232724 99 37 0.0 0.0 0.00 0.00 0.00 46 1011.3
20260905232220 99 37 0.0 0.0 0.00 0.00 0.00 47 1011.2
20260905231716 100 37 0.0 0.0 0.00 0.00 0.00 45 1011.1
20260905231211 99 37 0.0 0.0 0.00 0.00 0.00 45 1011.1
20260905230702 99 37 0.0 0.0 0.00 0.00 0.00 47 1011.2
20260905230159 99 37 0.0 0.0 0.00 0.00 0.00 46 1011.1
20260905225659 99 37 0.0 1.7 0.00 0.00 0.00 45 1011.1
20260905225154 100 36 0.9 1.7 0.00 0.00 0.00 45 1011.1
20260905224648 100 64 0.0 0.0 0.00 0.00 0.00 43 1011.0
20260905224148 100 64 0.9 1.7 0.00 0.00 0.00 44 1011.1
20260905223644 101 108 0.0 0.0 0.00 0.00 0.00 43 1011.1
20260905223141 100 112 0.0 0.0 0.00 0.00 0.00 43 1011.4
20260905222636 100 112 0.0 0.9 0.00 0.00 0.00 43 1011.2
20260905222131 100 154 0.9 1.7 0.00 0.00 0.00 45 1011.3
20260905221627 100 125 0.0 0.0 0.00 0.00 0.00 44 1011.3
20260905221124 101 184 0.0 0.9 0.00 0.00 0.00 44 1011.2
20260905220619 100 185 0.0 0.0 0.00 0.00 0.00 45 1011.5
20260905220115 98 122 0.9 1.7 0.00 0.00 0.00 44 1011.2
20260905215614 98 109 2.6 3.5 0.00 0.00 0.00 45 1011.4
20260905215110 98 85 1.7 3.5 0.00 0.00 0.00 44 1011.5
20260905214606 99 109 2.6 5.2 0.00 0.00 0.00 44 1011.4
20260905214100 100 120 1.7 3.5 0.00 0.00 0.00 45 1011.4
20260905213556 101 126 1.7 3.5 0.00 0.00 0.00 44 1011.5
20260905213051 101 191 2.6 2.6 0.00 0.00 0.00 43 1011.5
20260905212551 100 190 0.0 2.6 0.00 0.00 0.00 43 1011.5
20260905212045 100 213 0.9 1.7 0.00 0.00 0.00 45 1011.7
20260905211540 99 67 2.6 3.5 0.00 0.00 0.00 44 1011.4
20260905211036 100 145 1.7 6.1 0.00 0.00 0.00 43 1011.4
20260905210531 101 114 3.5 5.2 0.00 0.00 0.00 44 1011.6
20260905210026 101 42 0.9 2.6 0.00 0.00 0.00 43 1011.7
20260905205526 101 58 0.0 1.7 0.00 0.00 0.00 42 1011.7
20260905205025 101 77 0.9 6.1 0.00 0.00 0.00 41 1011.9
20260905204520 101 222 0.0 1.7 0.00 0.00 0.00 43 1011.9
20260905204015 100 131 1.7 3.5 0.00 0.00 0.00 47 1012.0
20260905203510 100 29 1.7 3.5 0.00 0.00 0.00 44 1012.0
20260905203005 99 107 0.0 1.7 0.00 0.00 0.00 45 1012.2
20260905202500 99 103 3.5 6.1 0.00 0.00 0.00 44 1012.1
20260905201956 100 73 4.3 7.0 0.00 0.00 0.00 44 1012.3
20260905201451 99 120 1.7 1.7 0.00 0.00 0.00 45 1012.5
20260905200950 100 110 1.7 3.5 0.00 0.00 0.00 46 1012.2
20260905200447 100 117 3.5 5.2 0.00 0.00 0.00 44 1012.4
20260905195945 100 74 1.7 3.5 0.00 0.00 0.00 45 1012.4
20260905195440 100 105 1.7 2.6 0.00 0.00 0.00 46 1012.4
20260905194936 99 70 1.7 2.6 0.00 0.00 0.00 47 1012.6
20260905194435 99 70 0.9 1.7 0.00 0.00 0.00 47 1012.7
20260905193935 100 80 5.2 6.1 0.00 0.00 0.00 46 1012.7
20260905193429 100 48 2.6 3.5 0.00 0.00 0.00 45 1012.8
20260905192924 101 35 0.0 0.0 0.00 0.00 0.00 45 1013.1
20260905192425 100 35 1.7 3.5 0.00 0.00 0.00 45 1013.0
20260905191920 99 53 0.9 5.2 0.00 0.00 0.00 46 1012.9
20260905191419 98 359 1.7 3.5 0.00 0.00 0.00 47 1013.1
20260905190914 99 65 1.7 6.1 0.00 0.00 0.00 48 1013.2
20260905190411 100 104 3.5 5.2 0.00 0.00 0.00 47 1013.4
20260905185910 100 104 1.7 6.1 0.00 0.00 0.00 46 1013.4
20260905185406 100 88 2.6 3.5 0.00 0.00 0.00 48 1013.4
20260905184904 100 79 3.5 5.2 0.00 0.00 0.00 47 1013.5
20260905184359 99 152 3.5 3.5 0.00 0.00 0.00 48 1013.5
20260905183857 98 152 0.9 2.6 0.00 0.00 0.00 50 1013.4
20260905183353 98 137 2.6 7.0 0.00 0.00 0.00 49 1013.7
20260905182848 98 120 1.7 3.5 0.00 0.00 0.00 50 1013.8
20260905182347 98 101 3.5 5.2 0.00 0.00 0.00 49 1013.7
20260905181843 99 94 2.6 3.5 0.00 0.00 0.00 48 1013.8
20260905181343 98 116 3.5 5.2 0.00 0.00 0.00 50 1013.8
20260905180841 98 128 3.5 3.5 0.00 0.00 0.00 49 1014.0
20260905180337 98 103 2.6 5.2 0.00 0.00 0.00 51 1014.0
20260905175831 98 126 3.5 5.2 0.00 0.00 0.00 49 1013.9
20260905175325 98 73 1.7 5.2 0.00 0.00 0.00 51 1014.0
20260905174821 99 56 2.6 6.1 0.00 0.00 0.00 50 1014.2
20260905174317 98 109 0.9 1.7 0.00 0.00 0.00 49 1014.2
20260905173812 98 93 4.3 7.8 0.00 0.00 0.00 50 1014.2
20260905173308 98 93 0.0 2.6 0.00 0.00 0.00 49 1014.5
20260905172808 98 75 5.2 7.0 0.00 0.00 0.00 49 1014.2
20260905172306 98 66 1.7 2.6 0.00 0.00 0.00 49 1014.5
20260905171803 98 113 1.7 8.7 0.00 0.00 0.00 52 1014.4
20260905171259 98 48 1.7 3.5 0.00 0.00 0.00 52 1014.5
20260905170755 97 88 3.5 5.2 0.00 0.00 0.00 50 1014.4
20260905170251 97 105 1.7 2.6 0.00 0.00 0.00 52 1014.4
20260905165749 96 9 0.0 3.5 0.00 0.00 0.00 53 1014.5
20260905165246 97 59 0.9 3.5 0.00 0.00 0.00 52 1014.5
20260905164745 98 47 1.7 2.6 0.00 0.00 0.00 51 1014.7
20260905164240 98 87 0.0 0.9 0.00 0.00 0.00 52 1014.6
20260905163736 96 87 0.0 1.7 0.00 0.00 0.00 54 1014.8
20260905163232 96 99 5.2 6.1 0.00 0.00 0.00 52 1014.7
20260905162728 96 108 5.2 7.0 0.00 0.00 0.00 54 1015.0
20260905162227 95 96 3.5 5.2 0.00 0.00 0.00 53 1015.0
20260905161722 95 90 2.6 3.5 0.00 0.00 0.00 56 1015.0
20260905161221 94 76 2.6 5.2 0.00 0.00 0.00 56 1015.1
20260905160720 94 76 1.7 5.2 0.00 0.00 0.00 58 1015.1
20260905160220 95 80 3.5 5.2 0.00 0.00 0.00 56 1015.4
20260905155714 95 76 0.9 2.6 0.00 0.00 0.00 58 1015.1
20260905155213 94 77 1.7 5.2 0.00 0.00 0.00 62 1015.1
20260905154707 93 63 1.7 3.5 0.00 0.00 0.00 60 1015.2
20260905154203 94 95 3.5 5.2 0.00 0.00 0.00 62 1015.3
20260905153654 93 62 0.9 2.6 0.00 0.00 0.00 64 1015.4
20260905153149 92 66 1.7 5.2 0.00 0.00 0.00 63 1015.3
20260905152643 91 58 2.6 3.5 0.00 0.00 0.00 65 1015.1
20260905152138 91 68 2.6 3.5 0.00 0.00 0.00 65 1015.3
20260905151632 91 78 2.6 5.2 0.00 0.00 0.00 67 1015.3
20260905151128 91 68 4.3 5.2 0.00 0.00 0.00 65 1015.3
20260905150623 91 71 2.6 3.5 0.00 0.00 0.00 67 1015.3
20260905150121 91 75 0.0 3.5 0.00 0.00 0.00 67 1015.3
20260905145620 91 76 0.0 1.7 0.00 0.00 0.00 66 1015.2
20260905145119 91 76 0.9 1.7 0.00 0.00 0.00 67 1015.2
20260905144615 89 76 0.9 3.5 0.00 0.00 0.00 71 1015.3
20260905144113 90 89 0.9 1.7 0.00 0.00 0.00 71 1015.3
20260905143609 89 89 1.7 2.6 0.00 0.00 0.00 72 1015.3
20260905143103 88 91 0.9 2.6 0.00 0.00 0.00 72 1015.2
20260905142602 87 93 0.9 2.6 0.00 0.00 0.00 74 1015.2
20260905142101 87 93 0.9 2.6 0.00 0.00 0.00 76 1015.4
20260905141601 86 92 1.7 2.6 0.00 0.00 0.00 77 1015.4
20260905141058 86 97 2.6 3.5 0.00 0.00 0.00 76 1015.5
20260905140553 86 96 1.7 1.7 0.00 0.00 0.00 76 1015.4
20260905140052 86 96 1.7 2.6 0.00 0.00 0.00 77 1015.2
20260905135547 86 98 0.9 1.7 0.00 0.00 0.00 77 1015.4
20260905135047 85 98 1.7 1.7 0.00 0.00 0.00 78 1015.4
20260905134543 84 98 0.9 2.6 0.00 0.00 0.00 78 1015.4
20260905134041 84 98 1.7 2.6 0.00 0.00 0.00 80 1015.4
20260905133537 83 98 0.9 1.7 0.00 0.00 0.00 82 1015.3
20260905133036 83 98 0.9 2.6 0.00 0.00 0.00 82 1015.4
20260905132536 82 98 1.7 3.5 0.00 0.00 0.00 84 1015.4
20260905132031 83 98 2.6 2.6 0.00 0.00 0.00 82 1015.3
20260905131526 82 98 0.9 1.7 0.00 0.00 0.00 83 1015.2
20260905131022 82 98 0.9 1.7 0.00 0.00 0.00 85 1015.4
20260905130521 81 98 0.9 1.7 0.00 0.00 0.00 85 1015.3
20260905130016 82 98 0.0 1.7 0.00 0.00 0.00 85 1015.5
20260905125510 82 98 0.0 0.9 0.00 0.00 0.00 83 1015.4
20260905125006 82 98 0.0 0.0 0.00 0.00 0.00 82 1015.4
20260905124457 80 98 0.0 0.0 0.00 0.00 0.00 86 1015.3
20260905123953 80 98 0.0 0.0 0.00 0.00 0.00 88 1015.5
20260905123448 78 98 0.0 0.0 0.00 0.00 0.00 90 1015.4
20260905122943 78 98 0.0 0.0 0.00 0.00 0.00 91 1015.4